Time,TemperatureF,DewpointF,PressureIn,WindDirection,WindDirectionDegrees,WindSpeedMPH,WindSpeedGustMPH,Humidity,HourlyPrecipIn,Conditions,Clouds,dailyrainin,SolarRadiationWatts/m^2,SoftwareType,DateUTC
2013-05-29 00:01:00,76.6,44.5,29.65,North,5,5.0,9.0,32,0.00,,,0.00,0,WeatherCatV1.02B3,2013-05-29 07:01:00,
2013-05-29 00:06:00,76.7,43.8,29.65,SSE,161,1.0,4.0,31,0.00,,,0.00,0,WeatherCatV1.02B3,2013-05-29 07:06:00,
2013-05-29 00:11:00,76.1,44.1,29.65,ESE,123,7.0,7.0,32,0.00,,,0.00,0,WeatherCatV1.02B3,2013-05-29 07:11:00,
2013-05-29 00:16:00,75.6,43.6,29.65,ENE,74,4.0,5.0,32,0.00,,,0.00,0,WeatherCatV1.02B3,2013-05-29 07:16:00,
2013-05-29 00:21:00,75.5,43.6,29.65,South,180,0.0,5.0,32,0.00,,,0.00,0,WeatherCatV1.02B3,2013-05-29 07:21:00,
2013-05-29 00:26:00,75.8,43.8,29.65,ESE,117,2.0,4.0,32,0.00,,,0.00,0,WeatherCatV1.02B3,2013-05-29 07:26:00,
2013-05-29 00:31:00,75.6,44.5,29.65,NNW,345,2.0,4.0,33,0.00,,,0.00,0,WeatherCatV1.02B3,2013-05-29 07:31:00,
2013-05-29 00:36:00,74.9,43.8,29.65,NNE,13,2.0,4.0,33,0.00,,,0.00,0,WeatherCatV1.02B3,2013-05-29 07:36:00,
2013-05-29 00:41:00,73.9,44.5,29.65,NNW,329,0.0,3.0,35,0.00,,,0.00,0,WeatherCatV1.02B3,2013-05-29 07:41:00,
2013-05-29 00:46:00,72.5,44.7,29.65,NNE,16,0.0,3.0,37,0.00,,,0.00,0,WeatherCatV1.02B3,2013-05-29 07:46:00,
2013-05-29 00:51:00,71.1,44.9,29.65,ENE,60,1.0,4.0,39,0.00,,,0.00,0,WeatherCatV1.02B3,2013-05-29 07:51:00,
2013-05-29 00:56:00,70.2,45.4,29.65,North,5,3.0,3.0,41,0.00,,,0.00,0,WeatherCatV1.02B3,2013-05-29 07:56:00,
2013-05-29 01:01:00,69.5,45.4,29.65,NNE,28,0.0,4.0,42,0.00,,,0.00,0,WeatherCatV1.02B3,2013-05-29 08:01:00,
2013-05-29 01:06:00,69.2,45.1,29.65,West,275,0.0,3.0,42,0.00,,,0.00,0,WeatherCatV1.02B3,2013-05-29 08:06:00,
2013-05-29 01:11:00,68.9,45.5,29.65,NNE,30,1.0,2.0,43,0.00,,,0.00,0,WeatherCatV1.02B3,2013-05-29 08:11:00,
2013-05-29 01:16:00,67.5,44.8,29.65,NNW,347,0.0,2.0,44,0.00,,,0.00,0,WeatherCatV1.02B3,2013-05-29 08:16:00,
2013-05-29 01:21:00,66.9,45.4,29.65,NNW,327,1.0,3.0,46,0.00,,,0.00,0,WeatherCatV1.02B3,2013-05-29 08:21:00,
2013-05-29 01:26:00,66.7,45.3,29.65,NE,36,1.0,3.0,46,0.00,,,0.00,0,WeatherCatV1.02B3,2013-05-29 08:26:00,
2013-05-29 01:31:00,66.3,44.9,29.65,North,355,2.0,3.0,46,0.00,,,0.00,0,WeatherCatV1.02B3,2013-05-29 08:31:00,
2013-05-29 01:36:00,66.3,44.9,29.65,North,355,2.0,2.0,46,0.00,,,0.00,0,WeatherCatV1.02B3,2013-05-29 08:36:00,
2013-05-29 01:41:00,66.0,44.6,29.65,NNW,331,1.0,3.0,46,0.00,,,0.00,0,WeatherCatV1.02B3,2013-05-29 08:41:00,
2013-05-29 01:46:00,65.5,44.7,29.65,NNW,331,0.0,0.0,47,0.00,,,0.00,0,WeatherCatV1.02B3,2013-05-29 08:46:00,
2013-05-29 01:51:00,63.8,44.3,29.65,NNW,331,0.0,1.0,49,0.00,,,0.00,0,WeatherCatV1.02B3,2013-05-29 08:51:00,
2013-05-29 01:56:00,63.8,45.3,29.65,NE,49,0.0,2.0,51,0.00,,,0.00,0,WeatherCatV1.02B3,2013-05-29 08:56:00,
2013-05-29 02:01:00,63.7,44.7,29.65,NE,49,0.0,0.0,50,0.00,,,0.00,0,WeatherCatV1.02B3,2013-05-29 09:01:00,
2013-05-29 02:06:00,63.6,45.1,29.65,East,86,0.0,1.0,51,0.00,,,0.00,0,WeatherCatV1.02B3,2013-05-29 09:06:00,
2013-05-29 02:11:00,63.0,44.6,29.65,NNW,327,1.0,4.0,51,0.00,,,0.00,0,WeatherCatV1.02B3,2013-05-29 09:11:00,
2013-05-29 02:16:00,63.3,44.9,29.65,NNW,334,0.0,1.0,51,0.00,,,0.00,0,WeatherCatV1.02B3,2013-05-29 09:16:00,
2013-05-29 02:21:00,63.0,44.6,29.65,ENE,71,1.0,2.0,51,0.00,,,0.00,0,WeatherCatV1.02B3,2013-05-29 09:21:00,
2013-05-29 02:26:00,62.8,44.9,29.65,NW,310,0.0,1.0,52,0.00,,,0.00,0,WeatherCatV1.02B3,2013-05-29 09:26:00,
2013-05-29 02:30:00,62.7,44.8,29.65,NW,310,0.0,0.0,52,0.00,,,0.00,0,WeatherCatV1.02B3,2013-05-29 09:30:00,
2013-05-29 02:35:00,61.8,44.0,29.65,NNW,333,1.0,2.0,52,0.00,,,0.00,0,WeatherCatV1.02B3,2013-05-29 09:35:00,
2013-05-29 02:40:00,60.5,44.2,29.65,NNW,333,0.0,1.0,55,0.00,,,0.00,0,WeatherCatV1.02B3,2013-05-29 09:40:00,
2013-05-29 02:45:00,60.5,44.2,29.65,NNW,333,0.0,1.0,55,0.00,,,0.00,0,WeatherCatV1.02B3,2013-05-29 09:45:00,
2013-05-29 02:50:00,60.4,43.7,29.65,NNW,332,0.0,1.0,54,0.00,,,0.00,0,WeatherCatV1.02B3,2013-05-29 09:50:00,
2013-05-29 02:55:00,59.4,43.7,29.65,NE,36,0.0,0.0,56,0.00,,,0.00,0,WeatherCatV1.02B3,2013-05-29 09:55:00,
2013-05-29 03:00:00,60.1,44.3,29.65,NNW,327,0.0,3.0,56,0.00,,,0.00,0,WeatherCatV1.02B3,2013-05-29 10:00:00,
2013-05-29 03:05:00,60.5,44.2,29.65,NE,51,0.0,0.0,55,0.00,,,0.00,0,WeatherCatV1.02B3,2013-05-29 10:05:00,
2013-05-29 03:10:00,59.8,44.1,29.65,West,279,1.0,1.0,56,0.00,,,0.00,0,WeatherCatV1.02B3,2013-05-29 10:10:00,
2013-05-29 03:15:00,59.5,44.3,29.65,ENE,67,0.0,1.0,57,0.00,,,0.00,0,WeatherCatV1.02B3,2013-05-29 10:15:00,
2013-05-29 03:20:00,59.3,44.1,29.65,ENE,67,0.0,0.0,57,0.00,,,0.00,0,WeatherCatV1.02B3,2013-05-29 10:20:00,
2013-05-29 03:25:00,58.4,43.7,29.65,North,5,1.0,1.0,58,0.00,,,0.00,0,WeatherCatV1.02B3,2013-05-29 10:25:00,
2013-05-29 03:30:00,58.8,44.5,29.65,NNE,18,0.0,3.0,59,0.00,,,0.00,0,WeatherCatV1.02B3,2013-05-29 10:30:00,
2013-05-29 03:35:00,59.5,44.7,29.65,North,351,2.0,2.0,58,0.00,,,0.00,0,WeatherCatV1.02B3,2013-05-29 10:35:00,
2013-05-29 03:40:00,60.4,45.1,29.65,NNE,30,0.0,1.0,57,0.00,,,0.00,0,WeatherCatV1.02B3,2013-05-29 10:40:00,
2013-05-29 03:45:00,59.9,44.2,29.65,ENE,67,0.0,2.0,56,0.00,,,0.00,0,WeatherCatV1.02B3,2013-05-29 10:45:00,
2013-05-29 03:50:00,58.8,44.1,29.65,ENE,69,1.0,1.0,58,0.00,,,0.00,0,WeatherCatV1.02B3,2013-05-29 10:50:00,
2013-05-29 03:53:00,58.6,44.3,29.65,ENE,68,1.0,1.0,59,0.00,,,0.00,0,WeatherCatV1.02B3,2013-05-29 10:53:00,
2013-05-29 03:58:00,58.7,44.0,29.65,West,265,0.0,1.0,58,0.00,,,0.00,0,WeatherCatV1.02B3,2013-05-29 10:58:00,
2013-05-29 04:03:00,57.5,43.7,29.65,West,265,0.0,1.0,60,0.00,,,0.00,0,WeatherCatV1.02B3,2013-05-29 11:03:00,
2013-05-29 04:08:00,56.8,43.5,29.65,West,265,0.0,0.0,61,0.00,,,0.00,0,WeatherCatV1.02B3,2013-05-29 11:08:00,
2013-05-29 04:13:00,56.6,43.7,29.65,West,265,0.0,0.0,62,0.00,,,0.00,0,WeatherCatV1.02B3,2013-05-29 11:13:00,
2013-05-29 04:18:00,56.8,44.3,29.65,NNE,12,0.0,1.0,63,0.00,,,0.00,0,WeatherCatV1.02B3,2013-05-29 11:18:00,
2013-05-29 04:23:00,57.1,44.2,29.65,NNE,12,0.0,0.0,62,0.00,,,0.00,0,WeatherCatV1.02B3,2013-05-29 11:23:00,
2013-05-29 04:28:00,56.8,43.5,29.65,NNE,12,0.0,1.0,61,0.00,,,0.00,0,WeatherCatV1.02B3,2013-05-29 11:28:00,
2013-05-29 04:33:00,56.0,43.6,29.65,NNE,12,0.0,1.0,63,0.00,,,0.00,0,WeatherCatV1.02B3,2013-05-29 11:33:00,
2013-05-29 04:38:00,56.3,44.3,29.65,ENE,62,1.0,2.0,64,0.00,,,0.00,0,WeatherCatV1.02B3,2013-05-29 11:38:00,
2013-05-29 04:43:00,56.7,44.7,29.65,ENE,57,0.0,3.0,64,0.00,,,0.00,0,WeatherCatV1.02B3,2013-05-29 11:43:00,
2013-05-29 04:48:00,57.0,44.5,29.65,North,0,2.0,6.0,63,0.00,,,0.00,0,WeatherCatV1.02B3,2013-05-29 11:48:00,
2013-05-29 04:53:00,57.5,44.6,29.65,NNW,340,0.0,2.0,62,0.00,,,0.00,0,WeatherCatV1.02B3,2013-05-29 11:53:00,
2013-05-29 04:58:00,57.2,44.3,29.65,NE,46,1.0,2.0,62,0.00,,,0.00,0,WeatherCatV1.02B3,2013-05-29 11:58:00,
2013-05-29 05:03:00,57.3,44.4,29.65,NE,36,0.0,0.0,62,0.00,,,0.00,0,WeatherCatV1.02B3,2013-05-29 12:03:00,
2013-05-29 05:08:00,57.1,43.8,29.65,NE,40,0.0,0.0,61,0.00,,,0.00,0,WeatherCatV1.02B3,2013-05-29 12:08:00,
2013-05-29 05:13:00,56.6,44.2,29.65,NE,40,0.0,0.0,63,0.00,,,0.00,0,WeatherCatV1.02B3,2013-05-29 12:13:00,
2013-05-29 05:18:00,56.3,43.9,29.65,NE,40,0.0,1.0,63,0.00,,,0.00,0,WeatherCatV1.02B3,2013-05-29 12:18:00,
2013-05-29 05:23:00,56.3,44.7,29.65,NE,34,1.0,1.0,65,0.00,,,0.00,0,WeatherCatV1.02B3,2013-05-29 12:23:00,
2013-05-29 05:28:00,56.5,44.9,29.65,NE,43,0.0,2.0,65,0.00,,,0.00,0,WeatherCatV1.02B3,2013-05-29 12:28:00,
2013-05-29 05:33:00,56.4,44.8,29.65,NNW,332,0.0,1.0,65,0.00,,,0.00,0,WeatherCatV1.02B3,2013-05-29 12:33:00,
2013-05-29 05:38:00,56.2,44.6,29.65,NE,48,0.0,0.0,65,0.00,,,0.00,0,WeatherCatV1.02B3,2013-05-29 12:38:00,
2013-05-29 05:43:00,55.7,44.5,29.65,NE,40,0.0,2.0,66,0.00,,,0.00,0,WeatherCatV1.02B3,2013-05-29 12:43:00,
2013-05-29 05:48:00,55.6,45.2,29.65,NE,39,0.0,1.0,68,0.00,,,0.00,5,WeatherCatV1.02B3,2013-05-29 12:48:00,
2013-05-29 05:53:00,55.6,44.8,29.65,NE,39,0.0,0.0,67,0.00,,,0.00,5,WeatherCatV1.02B3,2013-05-29 12:53:00,
2013-05-29 05:58:00,55.3,44.5,29.65,ESE,119,1.0,1.0,67,0.00,,,0.00,7,WeatherCatV1.02B3,2013-05-29 12:58:00,
2013-05-29 06:03:00,54.9,44.5,29.65,West,267,0.0,0.0,68,0.00,,,0.00,9,WeatherCatV1.02B3,2013-05-29 13:03:00,
2013-05-29 06:08:00,54.8,44.4,29.65,West,267,0.0,0.0,68,0.00,,,0.00,11,WeatherCatV1.02B3,2013-05-29 13:08:00,
2013-05-29 06:13:00,54.5,44.5,29.65,West,267,0.0,1.0,69,0.00,,,0.00,12,WeatherCatV1.02B3,2013-05-29 13:13:00,
2013-05-29 06:18:00,54.1,44.5,29.65,West,267,0.0,0.0,70,0.00,,,0.00,14,WeatherCatV1.02B3,2013-05-29 13:18:00,
2013-05-29 06:23:00,54.5,44.9,29.65,West,267,0.0,0.0,70,0.00,,,0.00,16,WeatherCatV1.02B3,2013-05-29 13:23:00,
2013-05-29 06:28:00,54.9,45.3,29.65,NE,39,0.0,1.0,70,0.00,,,0.00,18,WeatherCatV1.02B3,2013-05-29 13:28:00,
2013-05-29 06:33:00,55.1,45.5,29.65,ESE,122,0.0,1.0,70,0.00,,,0.00,19,WeatherCatV1.02B3,2013-05-29 13:33:00,
2013-05-29 06:38:00,54.9,45.3,29.65,WNW,301,0.0,0.0,70,0.00,,,0.00,21,WeatherCatV1.02B3,2013-05-29 13:38:00,
2013-05-29 06:43:00,55.8,45.8,29.65,NE,51,0.0,1.0,69,0.00,,,0.00,23,WeatherCatV1.02B3,2013-05-29 13:43:00,
2013-05-29 06:48:00,56.8,46.0,29.65,North,0,0.0,0.0,67,0.00,,,0.00,25,WeatherCatV1.02B3,2013-05-29 13:48:00,
2013-05-29 06:53:00,57.5,46.2,29.65,North,0,0.0,0.0,66,0.00,,,0.00,25,WeatherCatV1.02B3,2013-05-29 13:53:00,
2013-05-29 06:58:00,57.6,46.3,29.65,North,11,0.0,0.0,66,0.00,,,0.00,26,WeatherCatV1.02B3,2013-05-29 13:58:00,
2013-05-29 07:03:00,58.0,46.7,29.65,NNE,14,0.0,1.0,66,0.00,,,0.00,26,WeatherCatV1.02B3,2013-05-29 14:03:00,
2013-05-29 07:08:00,58.6,47.3,29.65,NNE,14,0.0,0.0,66,0.00,,,0.00,28,WeatherCatV1.02B3,2013-05-29 14:08:00,
2013-05-29 07:13:00,59.4,47.6,29.65,NNE,14,0.0,1.0,65,0.00,,,0.00,28,WeatherCatV1.02B3,2013-05-29 14:13:00,
2013-05-29 07:18:00,59.7,47.1,29.65,NNE,14,0.0,0.0,63,0.00,,,0.00,30,WeatherCatV1.02B3,2013-05-29 14:18:00,
2013-05-29 07:23:00,60.3,48.1,29.65,NNE,14,0.0,1.0,64,0.00,,,0.00,32,WeatherCatV1.02B3,2013-05-29 14:23:00,
2013-05-29 07:28:00,61.1,48.0,29.65,ENE,58,0.0,0.0,62,0.00,,,0.00,37,WeatherCatV1.02B3,2013-05-29 14:28:00,
2013-05-29 07:33:00,62.0,48.4,29.65,ENE,70,0.0,1.0,61,0.00,,,0.00,32,WeatherCatV1.02B3,2013-05-29 14:33:00,
2013-05-29 07:38:00,62.7,48.6,29.65,NNE,22,0.0,1.0,60,0.00,,,0.00,100,WeatherCatV1.02B3,2013-05-29 14:38:00,
2013-05-29 07:43:00,63.3,49.2,29.65,NNE,18,0.0,1.0,60,0.00,,,0.00,216,WeatherCatV1.02B3,2013-05-29 14:43:00,
2013-05-29 07:48:00,64.0,49.8,29.65,North,355,0.0,1.0,60,0.00,,,0.00,190,WeatherCatV1.02B3,2013-05-29 14:48:00,
2013-05-29 07:54:00,64.4,50.2,29.65,West,267,0.0,0.0,60,0.00,,,0.00,330,WeatherCatV1.02B3,2013-05-29 14:54:00,
2013-05-29 07:59:00,65.3,51.5,29.65,WNW,287,0.0,1.0,61,0.00,,,0.00,346,WeatherCatV1.02B3,2013-05-29 14:59:00,
2013-05-29 08:04:00,66.1,51.8,29.65,NW,310,1.0,1.0,60,0.00,,,0.00,366,WeatherCatV1.02B3,2013-05-29 15:04:00,
2013-05-29 08:09:00,67.4,52.1,29.65,West,273,0.0,1.0,58,0.00,,,0.00,378,WeatherCatV1.02B3,2013-05-29 15:09:00,
2013-05-29 08:14:00,67.7,51.9,29.65,ESE,119,0.0,0.0,57,0.00,,,0.00,397,WeatherCatV1.02B3,2013-05-29 15:14:00,
2013-05-29 08:19:00,68.6,52.3,29.65,ESE,105,1.0,1.0,56,0.00,,,0.00,415,WeatherCatV1.02B3,2013-05-29 15:19:00,
2013-05-29 08:24:00,69.6,52.2,29.65,SSE,161,0.0,1.0,54,0.00,,,0.00,413,WeatherCatV1.02B3,2013-05-29 15:24:00,
2013-05-29 08:29:00,70.6,52.6,29.65,South,175,1.0,4.0,53,0.00,,,0.00,446,WeatherCatV1.02B3,2013-05-29 15:29:00,
2013-05-29 08:34:00,70.9,53.4,29.65,West,260,0.0,2.0,54,0.00,,,0.00,459,WeatherCatV1.02B3,2013-05-29 15:34:00,
2013-05-29 08:39:00,71.5,54.0,29.65,NNW,342,0.0,2.0,54,0.00,,,0.00,476,WeatherCatV1.02B3,2013-05-29 15:39:00,
2013-05-29 08:44:00,72.4,53.8,29.65,WSW,246,0.0,1.0,52,0.00,,,0.00,490,WeatherCatV1.02B3,2013-05-29 15:44:00,
2013-05-29 08:49:00,72.8,54.1,29.65,West,279,0.0,2.0,52,0.00,,,0.00,508,WeatherCatV1.02B3,2013-05-29 15:49:00,
2013-05-29 08:54:00,73.6,55.4,29.65,WNW,295,0.0,1.0,53,0.00,,,0.00,520,WeatherCatV1.02B3,2013-05-29 15:54:00,
2013-05-29 08:59:00,74.3,55.0,29.65,WNW,291,0.0,0.0,51,0.00,,,0.00,541,WeatherCatV1.02B3,2013-05-29 15:59:00,
2013-05-29 09:04:00,75.5,55.0,29.65,WNW,294,2.0,3.0,49,0.00,,,0.00,554,WeatherCatV1.02B3,2013-05-29 16:04:00,
2013-05-29 09:09:00,77.0,53.4,29.65,SSE,157,0.0,1.0,44,0.00,,,0.00,571,WeatherCatV1.02B3,2013-05-29 16:09:00,
2013-05-29 09:14:00,78.2,53.8,29.65,West,281,2.0,5.0,43,0.00,,,0.00,585,WeatherCatV1.02B3,2013-05-29 16:14:00,
2013-05-29 09:19:00,78.9,54.5,29.65,West,263,3.0,4.0,43,0.00,,,0.00,529,WeatherCatV1.02B3,2013-05-29 16:19:00,
2013-05-29 09:24:00,80.0,54.2,29.65,West,281,3.0,3.0,41,0.00,,,0.00,612,WeatherCatV1.02B3,2013-05-29 16:24:00,
2013-05-29 09:29:00,80.2,55.0,29.65,WSW,251,4.0,4.0,42,0.00,,,0.00,628,WeatherCatV1.02B3,2013-05-29 16:29:00,
2013-05-29 09:34:00,80.3,53.8,29.65,West,265,5.0,7.0,40,0.00,,,0.00,642,WeatherCatV1.02B3,2013-05-29 16:34:00,
2013-05-29 09:39:00,80.5,52.5,29.65,East,97,1.0,2.0,38,0.00,,,0.00,656,WeatherCatV1.02B3,2013-05-29 16:39:00,
2013-05-29 09:44:00,81.2,50.9,29.65,NW,309,2.0,5.0,35,0.00,,,0.00,668,WeatherCatV1.02B3,2013-05-29 16:44:00,
2013-05-29 09:49:00,81.4,53.3,29.65,West,272,4.0,6.0,38,0.00,,,0.00,682,WeatherCatV1.02B3,2013-05-29 16:49:00,
2013-05-29 09:54:00,82.1,53.9,29.65,West,279,0.0,6.0,38,0.00,,,0.00,691,WeatherCatV1.02B3,2013-05-29 16:54:00,
2013-05-29 09:59:00,82.9,54.7,29.65,ENE,57,0.0,3.0,38,0.00,,,0.00,703,WeatherCatV1.02B3,2013-05-29 16:59:00,
2013-05-29 10:04:00,83.5,53.7,29.65,WNW,291,4.0,6.0,36,0.00,,,0.00,717,WeatherCatV1.02B3,2013-05-29 17:04:00,
2013-05-29 10:09:00,83.4,53.6,29.65,NW,311,2.0,5.0,36,0.00,,,0.00,733,WeatherCatV1.02B3,2013-05-29 17:09:00,
2013-05-29 10:14:00,83.4,54.4,29.65,West,259,1.0,5.0,37,0.00,,,0.00,740,WeatherCatV1.02B3,2013-05-29 17:14:00,
2013-05-29 10:19:00,83.2,52.7,29.65,ENE,70,2.0,6.0,35,0.00,,,0.00,756,WeatherCatV1.02B3,2013-05-29 17:19:00,
2013-05-29 10:24:00,83.8,54.0,29.65,NE,34,2.0,2.0,36,0.00,,,0.00,766,WeatherCatV1.02B3,2013-05-29 17:24:00,
2013-05-29 10:29:00,84.2,51.9,29.65,ENE,57,1.0,6.0,33,0.00,,,0.00,779,WeatherCatV1.02B3,2013-05-29 17:29:00,
2013-05-29 10:34:00,85.3,52.1,29.65,WNW,294,0.0,2.0,32,0.00,,,0.00,791,WeatherCatV1.02B3,2013-05-29 17:34:00,
2013-05-29 10:39:00,86.2,53.7,29.65,ESE,119,0.0,5.0,33,0.00,,,0.00,800,WeatherCatV1.02B3,2013-05-29 17:39:00,
2013-05-29 10:44:00,85.8,54.2,29.65,ENE,76,1.0,7.0,34,0.00,,,0.00,809,WeatherCatV1.02B3,2013-05-29 17:44:00,
2013-05-29 10:49:00,84.4,54.5,29.65,ENE,65,3.0,5.0,36,0.00,,,0.00,819,WeatherCatV1.02B3,2013-05-29 17:49:00,
2013-05-29 10:54:00,83.8,54.7,29.65,East,90,2.0,10.0,37,0.00,,,0.00,824,WeatherCatV1.02B3,2013-05-29 17:54:00,
2013-05-29 10:59:00,84.4,54.5,29.65,SSE,152,1.0,5.0,36,0.00,,,0.00,840,WeatherCatV1.02B3,2013-05-29 17:59:00,
2013-05-29 11:04:00,84.8,54.1,29.65,NE,40,2.0,4.0,35,0.00,,,0.00,846,WeatherCatV1.02B3,2013-05-29 18:04:00,
2013-05-29 11:09:00,85.3,53.7,29.65,SSW,193,1.0,5.0,34,0.00,,,0.00,856,WeatherCatV1.02B3,2013-05-29 18:09:00,
2013-05-29 11:14:00,85.5,54.7,29.65,ENE,71,1.0,5.0,35,0.00,,,0.00,863,WeatherCatV1.02B3,2013-05-29 18:14:00,
2013-05-29 11:19:00,86.3,53.8,29.65,South,179,2.0,5.0,33,0.00,,,0.00,868,WeatherCatV1.02B3,2013-05-29 18:19:00,
2013-05-29 11:24:00,86.5,54.8,29.65,East,85,7.0,7.0,34,0.00,,,0.00,877,WeatherCatV1.02B3,2013-05-29 18:24:00,
2013-05-29 11:29:00,86.1,55.2,29.65,ENE,73,3.0,5.0,35,0.00,,,0.00,884,WeatherCatV1.02B3,2013-05-29 18:29:00,
2013-05-29 11:34:00,86.3,54.6,29.65,WNW,300,2.0,6.0,34,0.00,,,0.00,886,WeatherCatV1.02B3,2013-05-29 18:34:00,
2013-05-29 11:39:00,87.9,53.4,29.65,ENE,73,2.0,7.0,31,0.00,,,0.00,898,WeatherCatV1.02B3,2013-05-29 18:39:00,
2013-05-29 11:44:00,87.0,53.5,29.65,ESE,119,5.0,7.0,32,0.00,,,0.00,904,WeatherCatV1.02B3,2013-05-29 18:44:00,
2013-05-29 11:49:00,87.0,53.5,29.65,NNE,17,3.0,5.0,32,0.00,,,0.00,909,WeatherCatV1.02B3,2013-05-29 18:49:00,
2013-05-29 11:54:00,86.7,54.1,29.65,East,82,2.0,8.0,33,0.00,,,0.00,912,WeatherCatV1.02B3,2013-05-29 18:54:00,
2013-05-29 11:59:00,86.3,53.8,29.65,ENE,62,2.0,3.0,33,0.00,,,0.00,918,WeatherCatV1.02B3,2013-05-29 18:59:00,
2013-05-29 12:04:00,86.1,54.4,29.65,WSW,250,6.0,7.0,34,0.00,,,0.00,921,WeatherCatV1.02B3,2013-05-29 19:04:00,
2013-05-29 12:09:00,86.1,54.4,29.65,WNW,296,4.0,6.0,34,0.00,,,0.00,923,WeatherCatV1.02B3,2013-05-29 19:09:00,
2013-05-29 12:14:00,85.8,54.2,29.65,NW,309,2.0,4.0,34,0.00,,,0.00,926,WeatherCatV1.02B3,2013-05-29 19:14:00,
2013-05-29 12:19:00,87.6,56.5,29.65,WNW,301,3.0,4.0,35,0.00,,,0.00,932,WeatherCatV1.02B3,2013-05-29 19:19:00,
2013-05-29 12:24:00,88.0,55.2,29.65,North,0,0.0,4.0,33,0.00,,,0.00,928,WeatherCatV1.02B3,2013-05-29 19:24:00,
2013-05-29 12:29:00,87.6,53.2,29.65,SSE,155,2.0,5.0,31,0.00,,,0.00,937,WeatherCatV1.02B3,2013-05-29 19:29:00,
2013-05-29 12:34:00,87.0,54.4,29.65,West,281,4.0,8.0,33,0.00,,,0.00,940,WeatherCatV1.02B3,2013-05-29 19:34:00,
2013-05-29 12:39:00,88.4,53.0,29.65,WNW,284,1.0,4.0,30,0.00,,,0.00,942,WeatherCatV1.02B3,2013-05-29 19:39:00,
2013-05-29 12:44:00,87.6,53.2,29.65,NNW,328,3.0,6.0,31,0.00,,,0.00,939,WeatherCatV1.02B3,2013-05-29 19:44:00,
2013-05-29 12:49:00,86.6,52.3,29.65,WNW,292,3.0,3.0,31,0.00,,,0.00,944,WeatherCatV1.02B3,2013-05-29 19:49:00,
2013-05-29 12:54:00,87.5,54.0,29.65,West,276,6.0,8.0,32,0.00,,,0.00,949,WeatherCatV1.02B3,2013-05-29 19:54:00,
2013-05-29 12:59:00,87.2,53.7,29.65,WNW,298,1.0,7.0,32,0.00,,,0.00,946,WeatherCatV1.02B3,2013-05-29 19:59:00,
2013-05-29 13:05:00,86.3,52.9,29.65,NW,315,0.0,7.0,32,0.00,,,0.00,947,WeatherCatV1.02B3,2013-05-29 20:05:00,
2013-05-29 13:10:00,86.5,52.2,29.65,NNW,348,4.0,6.0,31,0.00,,,0.00,951,WeatherCatV1.02B3,2013-05-29 20:10:00,
2013-05-29 13:15:00,87.4,53.0,29.65,WSW,257,5.0,8.0,31,0.00,,,0.00,944,WeatherCatV1.02B3,2013-05-29 20:15:00,
2013-05-29 13:20:00,87.5,52.2,29.65,West,277,2.0,7.0,30,0.00,,,0.00,942,WeatherCatV1.02B3,2013-05-29 20:20:00,
2013-05-29 13:25:00,87.9,54.3,29.65,East,94,1.0,3.0,32,0.00,,,0.00,939,WeatherCatV1.02B3,2013-05-29 20:25:00,
2013-05-29 13:30:00,86.6,51.4,29.65,ESE,108,3.0,5.0,30,0.00,,,0.00,946,WeatherCatV1.02B3,2013-05-29 20:30:00,
2013-05-29 13:35:00,87.5,53.1,29.65,NE,51,6.0,6.0,31,0.00,,,0.00,933,WeatherCatV1.02B3,2013-05-29 20:35:00,
2013-05-29 13:40:00,87.5,52.2,29.65,West,269,3.0,7.0,30,0.00,,,0.00,935,WeatherCatV1.02B3,2013-05-29 20:40:00,
2013-05-29 13:45:00,87.9,53.4,29.65,SSW,211,4.0,5.0,31,0.00,,,0.00,930,WeatherCatV1.02B3,2013-05-29 20:45:00,
2013-05-29 13:50:00,88.7,52.3,29.65,ESE,108,4.0,9.0,29,0.00,,,0.00,930,WeatherCatV1.02B3,2013-05-29 20:50:00,
2013-05-29 13:55:00,88.9,52.5,29.65,East,90,3.0,6.0,29,0.00,,,0.00,921,WeatherCatV1.02B3,2013-05-29 20:55:00,
2013-05-29 14:00:00,89.8,53.3,29.65,ENE,67,1.0,3.0,29,0.00,,,0.00,916,WeatherCatV1.02B3,2013-05-29 21:00:00,
2013-05-29 14:05:00,89.0,52.6,29.65,ENE,73,4.0,9.0,29,0.00,,,0.00,912,WeatherCatV1.02B3,2013-05-29 21:05:00,
2013-05-29 14:10:00,89.9,53.3,29.65,SW,227,2.0,6.0,29,0.00,,,0.00,905,WeatherCatV1.02B3,2013-05-29 21:10:00,
2013-05-29 14:15:00,90.0,55.3,29.65,NNW,335,2.0,4.0,31,0.00,,,0.00,900,WeatherCatV1.02B3,2013-05-29 21:15:00,
2013-05-29 14:20:00,89.1,53.6,29.65,South,170,1.0,7.0,30,0.00,,,0.00,895,WeatherCatV1.02B3,2013-05-29 21:20:00,
2013-05-29 14:25:00,89.0,53.5,29.65,NE,40,2.0,6.0,30,0.00,,,0.00,893,WeatherCatV1.02B3,2013-05-29 21:25:00,
2013-05-29 14:30:00,89.4,53.8,29.65,SW,223,1.0,4.0,30,0.00,,,0.00,879,WeatherCatV1.02B3,2013-05-29 21:30:00,
2013-05-29 14:35:00,89.3,52.8,29.65,NW,314,2.0,4.0,29,0.00,,,0.00,875,WeatherCatV1.02B3,2013-05-29 21:35:00,
2013-05-29 14:40:00,89.3,54.7,29.65,South,186,1.0,7.0,31,0.00,,,0.00,860,WeatherCatV1.02B3,2013-05-29 21:40:00,
2013-05-29 14:45:00,88.5,52.1,29.65,NE,38,4.0,5.0,29,0.00,,,0.00,861,WeatherCatV1.02B3,2013-05-29 21:45:00,
2013-05-29 14:50:00,89.6,52.1,29.65,NW,319,2.0,5.0,28,0.00,,,0.00,851,WeatherCatV1.02B3,2013-05-29 21:50:00,
2013-05-29 14:55:00,90.3,52.7,29.65,ENE,61,1.0,2.0,28,0.00,,,0.00,842,WeatherCatV1.02B3,2013-05-29 21:55:00,
2013-05-29 15:00:00,90.4,53.8,29.65,East,83,3.0,3.0,29,0.00,,,0.00,837,WeatherCatV1.02B3,2013-05-29 22:00:00,
2013-05-29 15:05:00,89.7,53.2,29.65,NW,324,3.0,5.0,29,0.00,,,0.00,826,WeatherCatV1.02B3,2013-05-29 22:05:00,
2013-05-29 15:10:00,89.5,52.0,29.65,WNW,299,1.0,5.0,28,0.00,,,0.00,814,WeatherCatV1.02B3,2013-05-29 22:10:00,
2013-05-29 15:15:00,89.6,52.1,29.65,NW,311,4.0,6.0,28,0.00,,,0.00,803,WeatherCatV1.02B3,2013-05-29 22:15:00,
2013-05-29 15:20:00,90.5,53.9,29.65,WSW,253,4.0,5.0,29,0.00,,,0.00,793,WeatherCatV1.02B3,2013-05-29 22:20:00,
2013-05-29 15:25:00,90.6,53.0,29.65,NNW,333,5.0,5.0,28,0.00,,,0.00,784,WeatherCatV1.02B3,2013-05-29 22:25:00,
2013-05-29 15:30:00,90.2,52.6,29.65,NW,311,4.0,4.0,28,0.00,,,0.00,772,WeatherCatV1.02B3,2013-05-29 22:30:00,
2013-05-29 15:35:00,90.1,53.5,29.65,East,91,3.0,5.0,29,0.00,,,0.00,765,WeatherCatV1.02B3,2013-05-29 22:35:00,
2013-05-29 15:40:00,90.0,53.4,29.65,ESE,108,2.0,2.0,29,0.00,,,0.00,749,WeatherCatV1.02B3,2013-05-29 22:40:00,
2013-05-29 15:45:00,89.6,52.1,29.65,WNW,290,3.0,5.0,28,0.00,,,0.00,738,WeatherCatV1.02B3,2013-05-29 22:45:00,
2013-05-29 15:50:00,89.7,53.2,29.65,NW,308,3.0,6.0,29,0.00,,,0.00,726,WeatherCatV1.02B3,2013-05-29 22:50:00,
2013-05-29 15:55:00,89.4,52.9,29.65,NE,34,3.0,7.0,29,0.00,,,0.00,712,WeatherCatV1.02B3,2013-05-29 22:55:00,
2013-05-29 16:00:00,89.0,53.5,29.65,ENE,77,2.0,7.0,30,0.00,,,0.00,696,WeatherCatV1.02B3,2013-05-29 23:00:00,
2013-05-29 16:05:00,88.8,53.3,29.65,NNW,333,1.0,5.0,30,0.00,,,0.00,687,WeatherCatV1.02B3,2013-05-29 23:05:00,
2013-05-29 16:10:00,88.9,53.4,29.65,WSW,242,1.0,2.0,30,0.00,,,0.00,677,WeatherCatV1.02B3,2013-05-29 23:10:00,
2013-05-29 16:15:00,88.8,54.2,29.65,NW,312,6.0,7.0,31,0.00,,,0.00,664,WeatherCatV1.02B3,2013-05-29 23:15:00,
2013-05-29 16:20:00,88.9,53.4,29.65,SE,133,1.0,5.0,30,0.00,,,0.00,647,WeatherCatV1.02B3,2013-05-29 23:20:00,
2013-05-29 16:25:00,88.7,54.1,29.65,WNW,284,2.0,4.0,31,0.00,,,0.00,638,WeatherCatV1.02B3,2013-05-29 23:25:00,
2013-05-29 16:30:00,88.3,52.9,29.65,NNW,330,2.0,6.0,30,0.00,,,0.00,624,WeatherCatV1.02B3,2013-05-29 23:30:00,
2013-05-29 16:35:00,87.3,52.9,29.65,ENE,74,5.0,5.0,31,0.00,,,0.00,606,WeatherCatV1.02B3,2013-05-29 23:35:00,
2013-05-29 16:40:00,87.4,53.0,29.65,WNW,293,0.0,4.0,31,0.00,,,0.00,591,WeatherCatV1.02B3,2013-05-29 23:40:00,
2013-05-29 16:45:00,87.7,52.4,29.65,SSW,210,0.0,3.0,30,0.00,,,0.00,577,WeatherCatV1.02B3,2013-05-29 23:45:00,
2013-05-29 16:50:00,87.5,54.0,29.65,NE,48,1.0,5.0,32,0.00,,,0.00,564,WeatherCatV1.02B3,2013-05-29 23:50:00,
2013-05-29 16:55:00,87.0,54.4,29.65,NW,323,1.0,4.0,33,0.00,,,0.00,547,WeatherCatV1.02B3,2013-05-29 23:55:00,
2013-05-29 17:00:00,86.5,53.9,29.65,East,88,1.0,5.0,33,0.00,,,0.00,531,WeatherCatV1.02B3,2013-05-30 00:00:00,
2013-05-29 17:05:00,85.2,54.4,29.65,WNW,288,2.0,4.0,35,0.00,,,0.00,512,WeatherCatV1.02B3,2013-05-30 00:05:00,
2013-05-29 17:10:00,85.6,54.0,29.65,WNW,286,3.0,7.0,34,0.00,,,0.00,499,WeatherCatV1.02B3,2013-05-30 00:10:00,
2013-05-29 17:15:00,85.3,53.7,29.65,West,266,1.0,4.0,34,0.00,,,0.00,482,WeatherCatV1.02B3,2013-05-30 00:15:00,
2013-05-29 17:20:00,86.4,54.7,29.65,West,279,0.0,3.0,34,0.00,,,0.00,466,WeatherCatV1.02B3,2013-05-30 00:20:00,
2013-05-29 17:25:00,86.3,54.6,29.65,WNW,288,2.0,5.0,34,0.00,,,0.00,452,WeatherCatV1.02B3,2013-05-30 00:25:00,
2013-05-29 17:30:00,86.0,53.5,29.65,WSW,244,0.0,4.0,33,0.00,,,0.00,434,WeatherCatV1.02B3,2013-05-30 00:30:00,
2013-05-29 17:35:00,85.9,55.0,29.65,West,266,2.0,6.0,35,0.00,,,0.00,417,WeatherCatV1.02B3,2013-05-30 00:35:00,
2013-05-29 17:40:00,85.9,55.0,29.65,South,171,1.0,2.0,35,0.00,,,0.00,397,WeatherCatV1.02B3,2013-05-30 00:40:00,
2013-05-29 17:45:00,85.2,53.6,29.65,WSW,240,0.0,2.0,34,0.00,,,0.00,380,WeatherCatV1.02B3,2013-05-30 00:45:00,
2013-05-29 17:50:00,85.2,56.0,29.65,WSW,240,5.0,8.0,37,0.00,,,0.00,367,WeatherCatV1.02B3,2013-05-30 00:50:00,
2013-05-29 17:55:00,85.2,55.2,29.65,West,279,4.0,6.0,36,0.00,,,0.00,352,WeatherCatV1.02B3,2013-05-30 00:55:00,
2013-05-29 18:00:00,84.0,55.6,29.65,WSW,245,4.0,9.0,38,0.00,,,0.00,336,WeatherCatV1.02B3,2013-05-30 01:00:00,
2013-05-29 18:05:00,83.5,55.2,29.65,SW,236,1.0,5.0,38,0.00,,,0.00,316,WeatherCatV1.02B3,2013-05-30 01:05:00,
2013-05-29 18:10:00,82.9,55.4,29.65,WSW,244,0.0,4.0,39,0.00,,,0.00,302,WeatherCatV1.02B3,2013-05-30 01:10:00,
2013-05-29 18:15:00,82.9,55.4,29.65,West,271,5.0,5.0,39,0.00,,,0.00,221,WeatherCatV1.02B3,2013-05-30 01:15:00,
2013-05-29 18:20:00,82.0,55.3,29.65,West,281,6.0,6.0,40,0.00,,,0.00,241,WeatherCatV1.02B3,2013-05-30 01:20:00,
2013-05-29 18:25:00,81.3,56.0,29.65,West,264,6.0,6.0,42,0.00,,,0.00,250,WeatherCatV1.02B3,2013-05-30 01:25:00,
2013-05-29 18:30:00,80.9,55.6,29.65,NW,307,1.0,4.0,42,0.00,,,0.00,232,WeatherCatV1.02B3,2013-05-30 01:30:00,
2013-05-29 18:35:00,80.4,55.8,29.65,West,273,3.0,6.0,43,0.00,,,0.00,218,WeatherCatV1.02B3,2013-05-30 01:35:00,
2013-05-29 18:40:00,79.9,56.0,29.65,West,269,2.0,5.0,44,0.00,,,0.00,197,WeatherCatV1.02B3,2013-05-30 01:40:00,
2013-05-29 18:45:00,78.9,55.7,29.65,West,259,3.0,6.0,45,0.00,,,0.00,178,WeatherCatV1.02B3,2013-05-30 01:45:00,
2013-05-29 18:50:00,78.5,56.0,29.65,WNW,285,2.0,5.0,46,0.00,,,0.00,155,WeatherCatV1.02B3,2013-05-30 01:50:00,
2013-05-29 18:55:00,78.3,55.2,29.65,West,261,0.0,5.0,45,0.00,,,0.00,98,WeatherCatV1.02B3,2013-05-30 01:55:00,
2013-05-29 19:00:00,77.5,55.1,29.65,WNW,292,0.0,3.0,46,0.00,,,0.00,26,WeatherCatV1.02B3,2013-05-30 02:00:00,
2013-05-29 19:05:00,77.0,55.2,29.65,West,265,0.0,0.0,47,0.00,,,0.00,25,WeatherCatV1.02B3,2013-05-30 02:05:00,
2013-05-29 19:10:00,76.8,55.6,29.65,WNW,293,4.0,4.0,48,0.00,,,0.00,23,WeatherCatV1.02B3,2013-05-30 02:10:00,
2013-05-29 19:15:00,76.6,52.4,29.65,WNW,285,2.0,2.0,43,0.00,,,0.00,21,WeatherCatV1.02B3,2013-05-30 02:15:00,
2013-05-29 19:20:00,76.0,54.9,29.65,WNW,300,0.0,1.0,48,0.00,,,0.00,19,WeatherCatV1.02B3,2013-05-30 02:20:00,
2013-05-29 19:25:00,75.9,54.8,29.65,SW,229,1.0,2.0,48,0.00,,,0.00,18,WeatherCatV1.02B3,2013-05-30 02:25:00,
2013-05-29 19:30:00,75.8,54.1,29.65,West,270,1.0,2.0,47,0.00,,,0.00,16,WeatherCatV1.02B3,2013-05-30 02:30:00,
2013-05-29 19:35:00,75.5,54.4,29.65,West,268,0.0,0.0,48,0.00,,,0.00,14,WeatherCatV1.02B3,2013-05-30 02:35:00,
2013-05-29 19:40:00,75.1,54.1,29.65,North,0,1.0,1.0,48,0.00,,,0.00,12,WeatherCatV1.02B3,2013-05-30 02:40:00,
2013-05-29 19:45:00,74.3,53.3,29.65,North,355,0.0,1.0,48,0.00,,,0.00,11,WeatherCatV1.02B3,2013-05-30 02:45:00,
2013-05-29 19:50:00,74.5,53.5,29.65,NNW,329,0.0,0.0,48,0.00,,,0.00,9,WeatherCatV1.02B3,2013-05-30 02:50:00,
2013-05-29 19:55:00,74.0,53.0,29.65,South,178,0.0,2.0,48,0.00,,,0.00,7,WeatherCatV1.02B3,2013-05-30 02:55:00,
2013-05-29 20:00:00,73.2,51.7,29.65,NW,316,2.0,3.0,47,0.00,,,0.00,5,WeatherCatV1.02B3,2013-05-30 03:00:00,
2013-05-29 20:05:00,71.8,51.6,29.65,WNW,299,1.0,2.0,49,0.00,,,0.00,0,WeatherCatV1.02B3,2013-05-30 03:05:00,
2013-05-29 20:10:00,71.1,52.0,29.65,WNW,299,0.0,0.0,51,0.00,,,0.00,0,WeatherCatV1.02B3,2013-05-30 03:10:00,
2013-05-29 20:15:00,70.4,50.9,29.65,WNW,299,0.0,2.0,50,0.00,,,0.00,0,WeatherCatV1.02B3,2013-05-30 03:15:00,
2013-05-29 20:20:00,69.7,51.8,29.65,WNW,299,0.0,0.0,53,0.00,,,0.00,0,WeatherCatV1.02B3,2013-05-30 03:20:00,
2013-05-29 20:25:00,69.3,50.9,29.65,WNW,299,0.0,1.0,52,0.00,,,0.00,0,WeatherCatV1.02B3,2013-05-30 03:25:00,
2013-05-29 20:30:00,68.5,52.2,29.65,NW,311,0.0,2.0,56,0.00,,,0.00,0,WeatherCatV1.02B3,2013-05-30 03:30:00,
2013-05-29 20:35:00,68.9,52.5,29.65,NW,311,0.0,1.0,56,0.00,,,0.00,0,WeatherCatV1.02B3,2013-05-30 03:35:00,
2013-05-29 20:40:00,68.0,51.2,29.65,NW,311,0.0,0.0,55,0.00,,,0.00,0,WeatherCatV1.02B3,2013-05-30 03:40:00,
2013-05-29 20:46:00,67.5,51.7,29.65,NW,311,0.0,1.0,57,0.00,,,0.00,0,WeatherCatV1.02B3,2013-05-30 03:46:00,
2013-05-29 20:51:00,65.9,50.2,29.65,NW,311,0.0,0.0,57,0.00,,,0.00,0,WeatherCatV1.02B3,2013-05-30 03:51:00,
2013-05-29 20:56:00,65.4,52.0,29.65,NW,311,0.0,0.0,62,0.00,,,0.00,0,WeatherCatV1.02B3,2013-05-30 03:56:00,
2013-05-29 21:01:00,65.3,51.5,29.65,NW,311,0.0,0.0,61,0.00,,,0.00,0,WeatherCatV1.02B3,2013-05-30 04:01:00,
2013-05-29 21:06:00,65.2,52.7,29.65,NW,311,0.0,0.0,64,0.00,,,0.00,0,WeatherCatV1.02B3,2013-05-30 04:06:00,
2013-05-29 21:11:00,64.1,52.5,29.65,NW,311,0.0,1.0,66,0.00,,,0.00,0,WeatherCatV1.02B3,2013-05-30 04:11:00,
2013-05-29 21:16:00,64.3,53.1,29.65,NW,311,0.0,0.0,67,0.00,,,0.00,0,WeatherCatV1.02B3,2013-05-30 04:16:00,
2013-05-29 21:17:00,64.4,52.8,29.65,NW,311,0.0,0.0,66,0.00,,,0.00,0,WeatherCatV1.02B3,2013-05-30 04:17:00,
2013-05-29 21:20:00,64.1,52.9,29.65,NW,311,0.0,0.0,67,0.00,,,0.00,0,WeatherCatV1.02B3,2013-05-30 04:20:00,
2013-05-29 21:25:00,63.3,52.6,29.65,NW,311,0.0,0.0,68,0.00,,,0.00,0,WeatherCatV1.02B3,2013-05-30 04:25:00,
2013-05-29 21:30:00,63.4,53.0,29.65,NW,311,0.0,1.0,69,0.00,,,0.00,0,WeatherCatV1.02B3,2013-05-30 04:30:00,
2013-05-29 21:35:00,63.0,52.7,29.65,NW,311,0.0,0.0,69,0.00,,,0.00,0,WeatherCatV1.02B3,2013-05-30 04:35:00,
2013-05-29 21:40:00,62.7,52.4,29.65,NW,311,0.0,0.0,69,0.00,,,0.00,0,WeatherCatV1.02B3,2013-05-30 04:40:00,
2013-05-29 21:45:00,62.6,53.4,29.65,NW,311,0.0,0.0,72,0.00,,,0.00,0,WeatherCatV1.02B3,2013-05-30 04:45:00,
2013-05-29 21:50:00,61.8,53.0,29.65,NW,311,0.0,0.0,73,0.00,,,0.00,0,WeatherCatV1.02B3,2013-05-30 04:50:00,
2013-05-29 21:55:00,62.1,53.0,29.65,NW,311,0.0,0.0,72,0.00,,,0.00,0,WeatherCatV1.02B3,2013-05-30 04:55:00,
2013-05-29 22:00:00,62.0,52.9,29.65,NW,311,0.0,1.0,72,0.00,,,0.00,0,WeatherCatV1.02B3,2013-05-30 05:00:00,
2013-05-29 22:05:00,61.6,52.9,29.65,NW,311,0.0,0.0,73,0.00,,,0.00,0,WeatherCatV1.02B3,2013-05-30 05:05:00,
2013-05-29 22:10:00,61.3,52.9,29.65,NW,311,1.0,1.0,74,0.00,,,0.00,0,WeatherCatV1.02B3,2013-05-30 05:10:00,
2013-05-29 22:15:00,61.1,53.1,29.65,NW,311,1.0,1.0,75,0.00,,,0.00,0,WeatherCatV1.02B3,2013-05-30 05:15:00,
2013-05-29 22:20:00,61.3,52.9,29.65,NW,311,1.0,2.0,74,0.00,,,0.00,0,WeatherCatV1.02B3,2013-05-30 05:20:00,
2013-05-29 22:25:00,61.4,53.0,29.65,North,355,2.0,4.0,74,0.00,,,0.00,0,WeatherCatV1.02B3,2013-05-30 05:25:00,
2013-05-29 22:30:00,61.6,53.2,29.65,NE,52,0.0,1.0,74,0.00,,,0.00,0,WeatherCatV1.02B3,2013-05-30 05:30:00,
2013-05-29 22:35:00,61.1,52.7,29.65,ESE,103,1.0,3.0,74,0.00,,,0.00,0,WeatherCatV1.02B3,2013-05-30 05:35:00,
2013-05-29 22:40:00,60.9,52.9,29.65,NNE,13,1.0,2.0,75,0.00,,,0.00,0,WeatherCatV1.02B3,2013-05-30 05:40:00,
2013-05-29 22:45:00,60.8,52.8,29.65,NNE,15,0.0,1.0,75,0.00,,,0.00,0,WeatherCatV1.02B3,2013-05-30 05:45:00,
2013-05-29 22:50:00,60.4,52.8,29.65,NNE,15,0.0,2.0,76,0.00,,,0.00,0,WeatherCatV1.02B3,2013-05-30 05:50:00,
2013-05-29 22:55:00,60.2,52.6,29.65,NNW,328,0.0,1.0,76,0.00,,,0.00,0,WeatherCatV1.02B3,2013-05-30 05:55:00,
2013-05-29 23:00:00,60.0,52.8,29.65,NNW,329,0.0,0.0,77,0.00,,,0.00,0,WeatherCatV1.02B3,2013-05-30 06:00:00,
2013-05-29 23:05:00,59.6,52.4,29.65,NNW,329,0.0,1.0,77,0.00,,,0.00,0,WeatherCatV1.02B3,2013-05-30 06:05:00,
2013-05-29 23:10:00,59.8,52.6,29.65,NNW,328,1.0,1.0,77,0.00,,,0.00,0,WeatherCatV1.02B3,2013-05-30 06:10:00,
2013-05-29 23:15:00,59.8,52.6,29.65,NNW,328,0.0,0.0,77,0.00,,,0.00,0,WeatherCatV1.02B3,2013-05-30 06:15:00,
2013-05-29 23:20:00,59.4,52.2,29.65,NNW,328,0.0,1.0,77,0.00,,,0.00,0,WeatherCatV1.02B3,2013-05-30 06:20:00,
2013-05-29 23:25:00,59.2,52.0,29.65,NNW,328,0.0,1.0,77,0.00,,,0.00,0,WeatherCatV1.02B3,2013-05-30 06:25:00,
2013-05-29 23:30:00,59.4,52.2,29.65,NNW,328,0.0,0.0,77,0.00,,,0.00,0,WeatherCatV1.02B3,2013-05-30 06:30:00,
2013-05-29 23:35:00,58.7,51.9,29.65,NNW,328,0.0,0.0,78,0.00,,,0.00,0,WeatherCatV1.02B3,2013-05-30 06:35:00,
2013-05-29 23:40:00,58.4,51.9,29.65,NNW,328,1.0,1.0,79,0.00,,,0.00,0,WeatherCatV1.02B3,2013-05-30 06:40:00,
2013-05-29 23:45:00,58.1,52.0,29.65,NNW,328,0.0,0.0,80,0.00,,,0.00,0,WeatherCatV1.02B3,2013-05-30 06:45:00,
2013-05-29 23:50:00,58.7,52.9,29.65,NNW,328,0.0,0.0,81,0.00,,,0.00,0,WeatherCatV1.02B3,2013-05-30 06:50:00,
2013-05-29 23:55:00,58.0,51.5,29.65,NNW,328,0.0,0.0,79,0.00,,,0.00,0,WeatherCatV1.02B3,2013-05-30 06:55:00,